User: anonymous   Login
Location: Unspecified
(0.0000°N, 0.0000°E)
Time: 09:44:22
(UTC+02:00)
Language:

ATLAS 3B CENTAUR R/B - Orbit

View from above orbital plane
View from above orbital plane
View from above satellite
View from above satellite

Ground track
Ground track

The orbit data is extracted from the following two-line orbital elements,

1 28118U 03057B   16149.87578878  .00091013  00000-0  15009-2 0  9995
2 28118  28.1302  25.0810 3300830 104.3760 293.9991  8.87290747254568
Epoch (UTC): 28 May 2016 21:01:08
Eccentricity: 0.3300830
inclination: 28.1302°
perigee height: 224 km
apogee height: 6731 km
right ascension of ascending node: 25.0810°
argument of perigee: 104.3760°
revolutions per day: 8.87290747
mean anomaly at epoch: 293.9991°
orbit number at epoch: 25456

The dashed part of the orbit path shows where the satellite is in the earth's shadow,  

DLR